QPF
0.00 0.00 0.00 0.01 0.03 0.02 0.03 0.02 0.03 0.02 0.02 0.02 0.02 0.01 0.01 0.01 0.02 0.04 0.07 0.06 0.04 0.04 0.04 0.03 0.02 0.01 0.01 0.01 0.01 0.01 0.01 0.01 0.01 0.01 0.01 0.01 0.01 0.01 0.01 0.01 0.01 0.00 0.00
0.00 0.00 0.01 0.01 0.01 0.01 0.01 0.01 0.02 0.02 0.02 0.02 0.02 0.02 0.01 0.02 0.02 0.06 0.09 0.07 0.06 0.05 0.05 0.05 0.04 0.03 0.03 0.02 0.02 0.02 0.02 0.02 0.02 0.02 0.02 0.02 0.02 0.01 0.01 0.01 0.01 0.01 0.01
0.00 0.00 0.00 0.01 0.01 0.01 0.01 0.01 0.01 0.02 0.02 0.02 0.02 0.02 0.03 0.03 0.05 0.06 0.06 0.09 0.09 0.07 0.07 0.05 0.05 0.03 0.03 0.03 0.03 0.03 0.04 0.04 0.05 0.05 0.05 0.05 0.04 0.03 0.02 0.02 0.02 0.02 0.01
0.00 0.00 0.00 0.00 0.01 0.01 0.01 0.02 0.02 0.03 0.03 0.03 0.03 0.03 0.03 0.04 0.05 0.07 0.06 0.06 0.05 0.05 0.05 0.04 0.03 0.03 0.03 0.02 0.02 0.03 0.03 0.03 0.03 0.03 0.04 0.05 0.06 0.05 0.04 0.03 0.04 0.04 0.03
0.01 0.01 0.02 0.02 0.02 0.02 0.02 0.02 0.03 0.02 0.02 0.03 0.03 0.03 0.03 0.04 0.05 0.05 0.05 0.05 0.05 0.04 0.03 0.03 0.02 0.02 0.01 0.01 0.01 0.01 0.02 0.02 0.02 0.03 0.03 0.03 0.04 0.03 0.03 0.03 0.03 0.02 0.02
0.06 0.08 0.08 0.04 0.03 0.03 0.03 0.03 0.02 0.01 0.01 0.01 0.01 0.02 0.03 0.04 0.04 0.04 0.03 0.03 0.02 0.01 0.01 0.01 0.01 0.00 0.00 0.00 0.00 0.00 0.01 0.01 0.01 0.02 0.02 0.02 0.02 0.02 0.02 0.02 0.01 0.01 0.01
0.16 0.18 0.16 0.10 0.07 0.06 0.04 0.02 0.01 0.00 0.00 0.00 0.00 0.00 0.01 0.02 0.02 0.02 0.02 0.02 0.02 0.01 0.01 0.00 0.00 0.00 0.00 0.00 0.00 0.00 0.00 0.00 0.00 0.00 0.01 0.01 0.01 0.01 0.01 0.01 0.01 0.01 0.01
0.22 0.20 0.16 0.13 0.10 0.07 0.04 0.02 0.01 0.00 0.00 0.00 0.00 0.00 0.00 0.00 0.00 0.00 0.00 0.01 0.01 0.01 0.01 0.01 0.01 0.00 0.00 0.00 0.00 0.00 0.00 0.00 0.00 0.00 0.00 0.00 0.00 0.00 0.00 0.00 0.01 0.01 0.01
0.27 0.24 0.17 0.13 0.13 0.09 0.05 0.03 0.01 0.01 0.00 0.00 0.00 0.00 0.00 0.00 0.00 0.00 0.00 0.00 0.00 0.00 0.00 0.01 0.00 0.00 0.00 0.00 0.00 0.00 0.01 0.01 0.00 0.00 0.00 0.00 0.00 0.00 0.00 0.00 0.00 0.00 0.01
0.29 0.24 0.21 0.17 0.12 0.07 0.05 0.04 0.02 0.01 0.00 0.00 0.00 0.00 0.00 0.00 0.00 0.00 0.00 0.00 0.00 0.00 0.00 0.01 0.01 0.01 0.00 0.00 0.01 0.01 0.01 0.01 0.00 0.00 0.00 0.00 0.00 0.00 0.00 0.00 0.00 0.00 0.00
0.28 0.23 0.18 0.14 0.10 0.07 0.05 0.03 0.01 0.00 0.00 0.00 0.00 0.00 0.00 0.00 0.01 0.01 0.01 0.00 0.00 0.01 0.01 0.01 0.01 0.01 0.01 0.01 0.01 0.01 0.01 0.01 0.01 0.01 0.01 0.00 0.00 0.00 0.00 0.00 0.01 0.01 0.01
0.23 0.18 0.14 0.11 0.08 0.06 0.03 0.02 0.01 0.00 0.00 0.00 0.00 0.00 0.01 0.01 0.01 0.01 0.01 0.00 0.00 0.00 0.00 0.00 0.00 0.00 0.00 0.01 0.01 0.01 0.01 0.01 0.01 0.00 0.00 0.00 0.00 0.00 0.00 0.01 0.01 0.01 0.01
0.16 0.12 0.09 0.07 0.04 0.03 0.02 0.01 0.00 0.00 0.00 0.00 0.00 0.00 0.00 0.00 0.00 0.00 0.01 0.00 0.00 0.00 0.00 0.00 0.00 0.00 0.00 0.00 0.00 0.00 0.00 0.00 0.00 0.00 0.00 0.00 0.00 0.00 0.00 0.01 0.01 0.01 0.01
0.09 0.08 0.07 0.05 0.02 0.01 0.00 0.00 0.00 0.00 0.00 0.00 0.00 0.00 0.00 0.00 0.00 0.00 0.00 0.00 0.00 0.00 0.00 0.00 0.00 0.00 0.00 0.00 0.00 0.00 0.00 0.00 0.00 0.00 0.00 0.00 0.00 0.00 0.00 0.00 0.01 0.01 0.01
0.05 0.04 0.04 0.02 0.00 0.00 0.00 0.00 0.00 0.00 0.00 0.00 0.00 0.00 0.00 0.00 0.00 0.00 0.00 0.00 0.00 0.00 0.00 0.00 0.00 0.00 0.00 0.00 0.00 0.00 0.00 0.00 0.00 0.00 0.00 0.00 0.00 0.00 0.00 0.01 0.01 0.01 0.01
0.02 0.01 0.01 0.00 0.00 0.00 0.00 0.00 0.00 0.00 0.00 0.00 0.00 0.00 0.00 0.00 0.00 0.00 0.00 0.00 0.00 0.00 0.00 0.00 0.00 0.00 0.00 0.00 0.00 0.00 0.00 0.00 0.00 0.00 0.00 0.00 0.01 0.01 0.01 0.01 0.01 0.01 0.01
0.01 0.00 0.00 0.00 0.00 0.00 0.00 0.00 0.00 0.00 0.00 0.00 0.00 0.00 0.00 0.00 0.00 0.00 0.00 0.00 0.00 0.00 0.00 0.00 0.00 0.00 0.00 0.00 0.00 0.00 0.00 0.00 0.00 0.00 0.00 0.00 0.00 0.01 0.01 0.01 0.01 0.01 0.01
0.00 0.00 0.00 0.00 0.00 0.00 0.00 0.00 0.00 0.00 0.00 0.00 0.00 0.00 0.00 0.00 0.00 0.00 0.00 0.00 0.00 0.00 0.00 0.00 0.00 0.00 0.00 0.00 0.00 0.00 0.00 0.00 0.00 0.00 0.00 0.00 0.01 0.01 0.01 0.01 0.01 0.01 0.01
0.00 0.00 0.00 0.00 0.00 0.00 0.00 0.00 0.00 0.00 0.00 0.00 0.00 0.00 0.00 0.00 0.00 0.00 0.00 0.00 0.00 0.00 0.00 0.00 0.00 0.00 0.00 0.00 0.00 0.00 0.00 0.00 0.00 0.00 0.00 0.00 0.01 0.01 0.01 0.01 0.01 0.01 0.00
0.00 0.00 0.00 0.00 0.00 0.00 0.00 0.00 0.00 0.00 0.00 0.00 0.00 0.00 0.00 0.00 0.00 0.00 0.00 0.00 0.00 0.00 0.00 0.00 0.00 0.00 0.00 0.00 0.00 0.00 0.00 0.00 0.00 0.00 0.00 0.00 0.00 0.00 0.00 0.01 0.01 0.01 0.01
0.00 0.00 0.00 0.00 0.00 0.00 0.00 0.00 0.00 0.00 0.00 0.00 0.00 0.00 0.00 0.01 0.01 0.00 0.00 0.00 0.00 0.00 0.00 0.00 0.00 0.00 0.00 0.00 0.00 0.01 0.00 0.00 0.00 0.00 0.00 0.00 0.00 0.00 0.00 0.00 0.01 0.01 0.01
0.00 0.00 0.00 0.00 0.00 0.00 0.00 0.00 0.00 0.00 0.00 0.00 0.00 0.00 0.00 0.01 0.01 0.00 0.00 0.00 0.00 0.00 0.00 0.01 0.01 0.01 0.00 0.01 0.01 0.01 0.01 0.01 0.00 0.00 0.00 0.00 0.00 0.00 0.00 0.00 0.01 0.01 0.01
0.00 0.00 0.00 0.00 0.00 0.00 0.00 0.00 0.00 0.00 0.00 0.00 0.00 0.00 0.00 0.01 0.00 0.00 0.00 0.00 0.00 0.00 0.01 0.02 0.01 0.01 0.01 0.01 0.01 0.01 0.00 0.01 0.01 0.00 0.01 0.01 0.00 0.00 0.00 0.00 0.01 0.01 0.00
0.00 0.00 0.00 0.00 0.00 0.00 0.00 0.00 0.00 0.00 0.00 0.00 0.00 0.00 0.00 0.00 0.00 0.00 0.00 0.00 0.00 0.00 0.00 0.01 0.01 0.01 0.01 0.01 0.01 0.01 0.01 0.01 0.00 0.00 0.01 0.01 0.00 0.00 0.00 0.00 0.00 0.00 0.00
0.00 0.00 0.00 0.00 0.00 0.00 0.00 0.00 0.00 0.00 0.00 0.00 0.00 0.00 0.00 0.00 0.00 0.00 0.00 0.00 0.00 0.00 0.00 0.00 0.00 0.00 0.00 0.00 0.01 0.01 0.01 0.02 0.02 0.01 0.01 0.01 0.01 0.00 0.00 0.00 0.00 0.00 0.00
0.00 0.00 0.00 0.00 0.00 0.00 0.00 0.00 0.00 0.00 0.00 0.00 0.00 0.00 0.00 0.00 0.00 0.00 0.00 0.00 0.00 0.00 0.00 0.00 0.00 0.00 0.00 0.01 0.01 0.01 0.01 0.02 0.02 0.03 0.02 0.02 0.02 0.01 0.02 0.00 0.00 0.00 0.00
MSLP
1016.54 1016.82 1017.05 1017.25 1017.43 1017.61 1017.79 1017.95 1018.07 1018.15 1018.17 1018.12 1018.04 1017.94 1017.86 1017.84 1017.88 1018.01 1018.19 1018.42 1018.67 1018.91 1019.14 1019.35 1019.53 1019.71 1019.87 1020.02 1020.17 1020.29 1020.39 1020.46 1020.50 1020.52 1020.54 1020.57 1020.63 1020.71 1020.82 1020.93 1021.03 1021.10 1021.13
1016.44 1016.72 1016.97 1017.20 1017.42 1017.66 1017.89 1018.11 1018.30 1018.43 1018.50 1018.49 1018.44 1018.36 1018.29 1018.25 1018.27 1018.36 1018.51 1018.70 1018.92 1019.15 1019.37 1019.58 1019.77 1019.95 1020.11 1020.26 1020.39 1020.49 1020.56 1020.59 1020.61 1020.61 1020.61 1020.63 1020.67 1020.73 1020.80 1020.87 1020.93 1020.96 1020.95
1016.34 1016.62 1016.88 1017.15 1017.43 1017.72 1018.03 1018.32 1018.57 1018.77 1018.89 1018.94 1018.92 1018.86 1018.79 1018.73 1018.71 1018.75 1018.85 1018.99 1019.16 1019.36 1019.56 1019.75 1019.95 1020.13 1020.29 1020.44 1020.56 1020.65 1020.70 1020.72 1020.72 1020.71 1020.69 1020.70 1020.72 1020.76 1020.81 1020.85 1020.87 1020.86 1020.82
1016.28 1016.56 1016.84 1017.14 1017.47 1017.82 1018.19 1018.55 1018.87 1019.13 1019.30 1019.39 1019.40 1019.35 1019.28 1019.19 1019.14 1019.11 1019.14 1019.21 1019.32 1019.46 1019.62 1019.80 1019.98 1020.16 1020.33 1020.49 1020.61 1020.70 1020.75 1020.77 1020.76 1020.74 1020.73 1020.73 1020.75 1020.78 1020.81 1020.84 1020.84 1020.80 1020.73
1016.31 1016.58 1016.87 1017.20 1017.56 1017.96 1018.38 1018.79 1019.16 1019.46 1019.67 1019.80 1019.83 1019.79 1019.70 1019.59 1019.48 1019.39 1019.34 1019.33 1019.36 1019.44 1019.55 1019.69 1019.85 1020.03 1020.20 1020.36 1020.50 1020.60 1020.66 1020.69 1020.70 1020.70 1020.69 1020.70 1020.73 1020.76 1020.80 1020.82 1020.82 1020.77 1020.69
1016.44 1016.71 1017.01 1017.35 1017.73 1018.16 1018.60 1019.03 1019.42 1019.75 1019.98 1020.12 1020.17 1020.13 1020.03 1019.89 1019.74 1019.59 1019.47 1019.38 1019.33 1019.33 1019.38 1019.47 1019.60 1019.75 1019.92 1020.09 1020.23 1020.35 1020.43 1020.49 1020.52 1020.54 1020.57 1020.60 1020.65 1020.70 1020.76 1020.79 1020.79 1020.76 1020.67
1016.71 1016.97 1017.27 1017.60 1017.99 1018.41 1018.85 1019.28 1019.67 1019.99 1020.23 1020.38 1020.43 1020.40 1020.30 1020.15 1019.97 1019.78 1019.59 1019.43 1019.31 1019.23 1019.21 1019.24 1019.32 1019.44 1019.58 1019.73 1019.88 1020.01 1020.12 1020.20 1020.26 1020.32 1020.37 1020.44 1020.52 1020.60 1020.68 1020.74 1020.76 1020.73 1020.65
1017.10 1017.35 1017.64 1017.96 1018.33 1018.73 1019.14 1019.54 1019.90 1020.21 1020.44 1020.59 1020.66 1020.64 1020.56 1020.41 1020.23 1020.02 1019.79 1019.58 1019.39 1019.25 1019.15 1019.10 1019.12 1019.18 1019.28 1019.41 1019.54 1019.66 1019.78 1019.88 1019.97 1020.06 1020.15 1020.25 1020.36 1020.47 1020.58 1020.65 1020.69 1020.67 1020.59
1017.59 1017.84 1018.11 1018.42 1018.75 1019.11 1019.48 1019.84 1020.17 1020.45 1020.67 1020.82 1020.90 1020.91 1020.86 1020.75 1020.59 1020.38 1020.15 1019.90 1019.67 1019.46 1019.29 1019.17 1019.10 1019.10 1019.13 1019.20 1019.30 1019.40 1019.51 1019.61 1019.71 1019.82 1019.94 1020.06 1020.19 1020.32 1020.44 1020.52 1020.57 1020.55 1020.47
1018.17 1018.41 1018.67 1018.95 1019.25 1019.57 1019.89 1020.19 1020.48 1020.73 1020.94 1021.09 1021.20 1021.25 1021.25 1021.18 1021.06 1020.88 1020.66 1020.41 1020.15 1019.90 1019.66 1019.47 1019.32 1019.23 1019.19 1019.19 1019.22 1019.27 1019.34 1019.43 1019.52 1019.63 1019.75 1019.88 1020.01 1020.14 1020.25 1020.33 1020.36 1020.34 1020.25
1018.78 1019.03 1019.28 1019.54 1019.81 1020.08 1020.35 1020.61 1020.86 1021.07 1021.27 1021.43 1021.56 1021.65 1021.69 1021.68 1021.62 1021.48 1021.30 1021.06 1020.79 1020.51 1020.23 1019.97 1019.75 1019.57 1019.44 1019.35 1019.30 1019.29 1019.30 1019.35 1019.41 1019.49 1019.59 1019.70 1019.81 1019.92 1020.00 1020.05 1020.05 1020.00 1019.90
1019.42 1019.66 1019.91 1020.16 1020.40 1020.65 1020.88 1021.09 1021.30 1021.48 1021.66 1021.82 1021.96 1022.08 1022.16 1022.20 1022.18 1022.10 1021.95 1021.74 1021.49 1021.19 1020.89 1020.58 1020.30 1020.04 1019.83 1019.65 1019.51 1019.42 1019.36 1019.34 1019.35 1019.39 1019.44 1019.51 1019.57 1019.63 1019.66 1019.66 1019.61 1019.52 1019.39
1020.05 1020.30 1020.55 1020.79 1021.03 1021.25 1021.45 1021.62 1021.79 1021.94 1022.08 1022.22 1022.36 1022.48 1022.58 1022.65 1022.67 1022.62 1022.52 1022.34 1022.11 1021.83 1021.52 1021.20 1020.87 1020.55 1020.27 1020.01 1019.78 1019.60 1019.46 1019.36 1019.30 1019.27 1019.26 1019.26 1019.26 1019.25 1019.21 1019.14 1019.03 1018.89 1018.72
1020.68 1020.94 1021.20 1021.45 1021.67 1021.87 1022.05 1022.19 1022.31 1022.41 1022.51 1022.62 1022.72 1022.82 1022.91 1022.97 1023.00 1022.98 1022.91 1022.77 1022.57 1022.32 1022.03 1021.71 1021.36 1021.01 1020.67 1020.34 1020.04 1019.77 1019.55 1019.36 1019.22 1019.11 1019.02 1018.95 1018.87 1018.78 1018.66 1018.51 1018.33 1018.14 1017.92
1021.31 1021.58 1021.85 1022.10 1022.33 1022.51 1022.66 1022.77 1022.84 1022.89 1022.94 1022.98 1023.02 1023.07 1023.11 1023.15 1023.16 1023.14 1023.08 1022.97 1022.81 1022.60 1022.34 1022.04 1021.71 1021.34 1020.97 1020.59 1020.22 1019.88 1019.57 1019.30 1019.08 1018.89 1018.72 1018.56 1018.40 1018.22 1018.02 1017.79 1017.54 1017.29 1017.03
1021.96 1022.24 1022.51 1022.76 1022.98 1023.15 1023.27 1023.34 1023.37 1023.36 1023.33 1023.30 1023.26 1023.23 1023.20 1023.18 1023.15 1023.11 1023.05 1022.97 1022.84 1022.68 1022.46 1022.20 1021.88 1021.52 1021.13 1020.72 1020.30 1019.90 1019.51 1019.17 1018.86 1018.59 1018.34 1018.11 1017.87 1017.61 1017.33 1017.03 1016.72 1016.41 1016.11
1022.63 1022.90 1023.16 1023.41 1023.61 1023.77 1023.86 1023.89 1023.87 1023.80 1023.71 1023.59 1023.47 1023.35 1023.23 1023.13 1023.05 1022.97 1022.89 1022.81 1022.71 1022.58 1022.41 1022.19 1021.90 1021.56 1021.16 1020.73 1020.27 1019.81 1019.36 1018.95 1018.57 1018.23 1017.92 1017.61 1017.31 1016.99 1016.65 1016.28 1015.91 1015.54 1015.21
1023.30 1023.55 1023.79 1024.02 1024.20 1024.33 1024.39 1024.39 1024.33 1024.22 1024.05 1023.86 1023.66 1023.45 1023.25 1023.07 1022.91 1022.78 1022.68 1022.59 1022.50 1022.39 1022.25 1022.06 1021.80 1021.47 1021.08 1020.62 1020.14 1019.63 1019.13 1018.66 1018.23 1017.83 1017.46 1017.11 1016.75 1016.38 1015.99 1015.58 1015.16 1014.75 1014.37
1023.94 1024.15 1024.37 1024.56 1024.71 1024.81 1024.84 1024.82 1024.72 1024.57 1024.36 1024.12 1023.85 1023.57 1023.29 1023.04 1022.81 1022.62 1022.47 1022.36 1022.26 1022.16 1022.03 1021.86 1021.61 1021.29 1020.89 1020.42 1019.91 1019.37 1018.83 1018.32 1017.84 1017.40 1017.00 1016.61 1016.22 1015.82 1015.39 1014.94 1014.48 1014.03 1013.62
1024.51 1024.68 1024.84 1024.99 1025.10 1025.17 1025.18 1025.13 1025.02 1024.85 1024.62 1024.34 1024.03 1023.70 1023.37 1023.04 1022.75 1022.51 1022.30 1022.15 1022.02 1021.90 1021.76 1021.59 1021.34 1021.02 1020.61 1020.13 1019.59 1019.03 1018.47 1017.92 1017.42 1016.95 1016.53 1016.12 1015.71 1015.29 1014.84 1014.37 1013.88 1013.40 1012.94
1024.98 1025.09 1025.20 1025.29 1025.36 1025.39 1025.38 1025.32 1025.20 1025.03 1024.80 1024.51 1024.18 1023.82 1023.44 1023.07 1022.72 1022.41 1022.15 1021.94 1021.76 1021.60 1021.44 1021.24 1020.98 1020.65 1020.23 1019.74 1019.19 1018.62 1018.04 1017.48 1016.96 1016.49 1016.05 1015.63 1015.22 1014.78 1014.32 1013.83 1013.32 1012.81 1012.32
1025.32 1025.36 1025.41 1025.45 1025.47 1025.47 1025.44 1025.37 1025.26 1025.10 1024.88 1024.60 1024.27 1023.89 1023.48 1023.07 1022.66 1022.29 1021.97 1021.69 1021.46 1021.25 1021.04 1020.81 1020.53 1020.18 1019.75 1019.26 1018.71 1018.14 1017.56 1017.00 1016.48 1016.01 1015.57 1015.15 1014.72 1014.29 1013.82 1013.31 1012.78 1012.24 1011.72
1025.52 1025.52 1025.51 1025.49 1025.47 1025.44 1025.40 1025.32 1025.22 1025.07 1024.86 1024.60 1024.27 1023.88 1023.45 1023.00 1022.54 1022.11 1021.72 1021.37 1021.07 1020.80 1020.54 1020.28 1019.97 1019.61 1019.19 1018.71 1018.18 1017.62 1017.06 1016.51 1016.00 1015.53 1015.09 1014.66 1014.23 1013.78 1013.30 1012.78 1012.23 1011.66 1011.11
1025.62 1025.58 1025.52 1025.47 1025.42 1025.36 1025.29 1025.22 1025.11 1024.97 1024.77 1024.51 1024.18 1023.78 1023.32 1022.83 1022.32 1021.83 1021.37 1020.95 1020.59 1020.26 1019.96 1019.67 1019.35 1019.00 1018.59 1018.14 1017.63 1017.11 1016.57 1016.05 1015.55 1015.08 1014.63 1014.20 1013.75 1013.29 1012.79 1012.25 1011.67 1011.09 1010.52
1025.67 1025.60 1025.52 1025.44 1025.36 1025.28 1025.20 1025.10 1024.99 1024.84 1024.63 1024.36 1024.01 1023.59 1023.10 1022.57 1022.02 1021.47 1020.94 1020.47 1020.05 1019.68 1019.35 1019.04 1018.72 1018.39 1018.02 1017.60 1017.14 1016.66 1016.16 1015.66 1015.17 1014.70 1014.24 1013.79 1013.32 1012.82 1012.30 1011.73 1011.14 1010.54 1009.95
1025.72 1025.64 1025.56 1025.46 1025.36 1025.26 1025.15 1025.04 1024.90 1024.72 1024.49 1024.18 1023.81 1023.35 1022.83 1022.25 1021.65 1021.05 1020.48 1019.96 1019.50 1019.10 1018.76 1018.45 1018.16 1017.85 1017.53 1017.16 1016.76 1016.32 1015.86 1015.38 1014.90 1014.42 1013.95 1013.46 1012.96 1012.43 1011.87 1011.28 1010.67 1010.06 1009.47
Thickness
5752 5750 5747 5744 5741 5737 5734 5730 5727 5723 5720 5717 5714 5712 5711 5709 5707 5704 5702 5699 5697 5694 5691 5689 5687 5686 5685 5684 5683 5683 5682 5681 5679 5678 5677 5676 5675 5674 5673 5673 5672 5670 5670
5751 5748 5744 5741 5737 5734 5731 5727 5723 5719 5715 5713 5709 5706 5704 5702 5700 5698 5696 5693 5690 5688 5685 5683 5681 5680 5679 5678 5677 5676 5675 5674 5673 5671 5670 5669 5668 5667 5665 5665 5664 5663 5663
5750 5746 5742 5738 5734 5731 5727 5723 5719 5715 5711 5707 5703 5700 5697 5695 5693 5691 5689 5686 5684 5681 5679 5678 5675 5674 5673 5671 5670 5669 5668 5667 5666 5664 5663 5661 5660 5659 5657 5656 5655 5654 5654
5747 5743 5738 5734 5730 5726 5722 5718 5713 5708 5704 5700 5697 5694 5691 5688 5686 5684 5682 5679 5677 5676 5673 5672 5670 5667 5666 5664 5663 5661 5661 5659 5658 5656 5654 5653 5651 5649 5648 5647 5646 5645 5644
5741 5737 5732 5728 5724 5720 5715 5711 5706 5702 5697 5694 5691 5689 5686 5684 5681 5679 5677 5674 5672 5670 5668 5665 5664 5661 5659 5657 5655 5653 5652 5651 5649 5647 5645 5643 5641 5639 5637 5635 5634 5634 5633
5734 5730 5725 5720 5716 5712 5707 5704 5699 5695 5691 5688 5687 5683 5681 5679 5676 5674 5671 5669 5666 5664 5662 5659 5657 5655 5652 5650 5647 5645 5643 5641 5639 5636 5634 5632 5630 5627 5625 5623 5622 5621 5621
5726 5722 5716 5711 5707 5703 5699 5695 5692 5687 5683 5681 5678 5675 5674 5673 5670 5667 5665 5662 5659 5657 5655 5652 5650 5647 5645 5642 5639 5636 5634 5632 5629 5626 5623 5620 5618 5615 5613 5610 5609 5608 5607
5716 5712 5708 5703 5698 5694 5690 5687 5684 5679 5675 5672 5669 5665 5662 5661 5660 5660 5657 5654 5651 5648 5646 5643 5640 5638 5636 5633 5630 5627 5625 5622 5619 5615 5612 5608 5605 5602 5599 5597 5595 5594 5594
5704 5701 5697 5694 5689 5685 5681 5678 5675 5671 5665 5661 5660 5657 5652 5649 5647 5648 5646 5643 5640 5637 5634 5632 5630 5627 5625 5622 5620 5617 5614 5611 5608 5603 5599 5595 5591 5587 5584 5582 5580 5579 5578
5691 5688 5684 5682 5678 5674 5670 5667 5665 5661 5657 5651 5648 5645 5642 5639 5635 5634 5633 5631 5629 5625 5622 5620 5617 5615 5612 5610 5607 5605 5602 5598 5594 5589 5585 5580 5576 5572 5569 5567 5565 5564 5563
5678 5674 5671 5668 5665 5660 5657 5654 5651 5648 5645 5640 5636 5633 5629 5625 5622 5619 5616 5613 5613 5611 5609 5606 5603 5601 5598 5595 5592 5589 5585 5582 5577 5572 5567 5563 5559 5556 5553 5551 5549 5548 5547
5664 5661 5657 5655 5651 5647 5643 5640 5637 5633 5630 5626 5622 5619 5614 5610 5606 5603 5599 5596 5594 5594 5593 5590 5586 5584 5581 5577 5573 5570 5566 5562 5558 5553 5549 5545 5541 5538 5536 5534 5532 5531 5531
5650 5645 5642 5639 5636 5632 5628 5625 5622 5618 5615 5611 5607 5603 5599 5595 5592 5588 5583 5579 5577 5576 5574 5570 5567 5564 5560 5557 5552 5549 5545 5541 5537 5534 5530 5527 5524 5521 5519 5518 5517 5516 5515
5635 5631 5628 5623 5619 5616 5613 5609 5605 5602 5598 5594 5591 5587 5582 5578 5575 5571 5566 5561 5557 5553 5551 5549 5546 5543 5539 5536 5532 5529 5525 5522 5519 5516 5513 5510 5507 5505 5504 5502 5501 5500 5499
5621 5617 5613 5609 5604 5601 5597 5593 5589 5584 5581 5578 5574 5569 5565 5561 5557 5553 5548 5544 5539 5533 5529 5528 5525 5523 5520 5517 5514 5511 5508 5504 5502 5499 5497 5494 5492 5490 5488 5487 5487 5486 5485
5606 5602 5597 5593 5588 5584 5580 5576 5571 5567 5563 5559 5556 5551 5547 5543 5539 5535 5530 5525 5521 5516 5511 5509 5506 5505 5503 5500 5497 5495 5492 5490 5487 5485 5483 5481 5478 5476 5475 5474 5473 5473 5472
5590 5585 5580 5575 5570 5565 5561 5557 5552 5548 5545 5541 5537 5534 5529 5526 5521 5517 5513 5508 5503 5499 5495 5493 5490 5489 5487 5485 5483 5481 5479 5477 5474 5472 5470 5468 5466 5465 5463 5462 5462 5461 5461
5573 5568 5563 5557 5551 5545 5541 5537 5533 5529 5525 5521 5517 5514 5511 5509 5504 5500 5496 5492 5488 5484 5480 5478 5476 5474 5473 5471 5470 5468 5466 5463 5461 5459 5458 5457 5456 5455 5454 5453 5451 5451 5451
5556 5551 5545 5538 5532 5526 5522 5518 5513 5509 5505 5502 5499 5496 5493 5491 5487 5484 5480 5477 5473 5471 5467 5464 5462 5461 5460 5459 5458 5456 5454 5451 5450 5449 5449 5448 5447 5446 5445 5444 5443 5443 5442
5537 5532 5526 5519 5513 5508 5503 5499 5495 5491 5487 5484 5482 5479 5477 5475 5472 5470 5467 5463 5460 5457 5454 5451 5450 5449 5448 5448 5445 5444 5443 5442 5440 5440 5440 5440 5439 5438 5437 5437 5437 5436 5436
5519 5514 5507 5501 5496 5490 5485 5480 5476 5473 5469 5467 5465 5464 5463 5462 5460 5457 5454 5450 5448 5445 5442 5440 5440 5440 5439 5437 5436 5435 5434 5434 5434 5434 5433 5432 5431 5431 5430 5430 5430 5430 5430
5501 5496 5489 5483 5478 5473 5468 5464 5460 5455 5453 5451 5449 5449 5448 5448 5446 5443 5441 5440 5439 5436 5434 5432 5432 5432 5432 5431 5431 5429 5428 5428 5429 5429 5426 5426 5426 5424 5425 5424 5425 5425 5424
5484 5478 5472 5466 5460 5455 5451 5447 5444 5441 5438 5436 5434 5434 5434 5435 5432 5430 5428 5428 5428 5429 5429 5427 5427 5427 5428 5428 5427 5427 5425 5423 5422 5423 5421 5422 5422 5420 5420 5420 5420 5420 5419
5468 5462 5456 5450 5444 5439 5435 5431 5429 5426 5424 5423 5422 5422 5421 5421 5421 5419 5419 5420 5421 5423 5424 5425 5425 5426 5427 5427 5426 5425 5423 5422 5421 5420 5418 5416 5417 5416 5417 5416 5416 5416 5415
5453 5447 5442 5436 5430 5425 5421 5418 5415 5412 5410 5410 5411 5412 5412 5412 5413 5413 5413 5414 5417 5421 5424 5425 5426 5427 5427 5428 5427 5424 5422 5420 5419 5418 5417 5413 5413 5412 5412 5412 5412 5411 5410
5439 5433 5428 5422 5417 5412 5408 5405 5403 5400 5399 5400 5402 5404 5406 5407 5409 5410 5410 5412 5414 5419 5422 5424 5426 5428 5428 5428 5427 5424 5421 5418 5416 5416 5415 5410 5409 5407 5408 5408 5408 5407 5407